Hourly Weather Dziadoszyce

Today, 18 May, Tuesday

Time Temperature Precipitation Wind Pressure Humidity
00:00 +9°C° 0 mm 3 mps 744 mmHg 95%
01:00 +9°C° 0 mm 3 mps 744 mmHg 95%
02:00 +7°C° 0 mm 4 mps 744 mmHg 96%
03:00 +7°C° 0 mm 4 mps 745 mmHg 96%
04:00 +7°C° 0 mm 4 mps 745 mmHg 96%
05:00 +7°C° 0 mm 4 mps 745 mmHg 95%
06:00 +8°C° 0 mm 5 mps 746 mmHg 93%
07:00 +8°C° 0 mm 5 mps 746 mmHg 91%
08:00 +9°C° 0 mm 5 mps 746 mmHg 88%
09:00 +10°C° 0 mm 5 mps 747 mmHg 85%
10:00 +10°C° 0 mm 5 mps 747 mmHg 83%
11:00 +12°C° 0 mm 5 mps 747 mmHg 81%
12:00 +12°C° 0 mm 5 mps 747 mmHg 80%
13:00 +11°C° 0 mm 6 mps 747 mmHg 79%
14:00 +13°C° 0.1 mm 5 mps 747 mmHg 73%
15:00 +14°C° 0.1 mm 5 mps 747 mmHg 68%
16:00 +14°C° 0.1 mm 4 mps 747 mmHg 63%
17:00 +13°C° 0.1 mm 4 mps 747 mmHg 69%
18:00 +12°C° 0.1 mm 3 mps 747 mmHg 75%
19:00 +13°C° 0.1 mm 2 mps 748 mmHg 81%
20:00 +10°C° 0 mm 2 mps 748 mmHg 85%
21:00 +9°C° 0 mm 2 mps 748 mmHg 88%
22:00 +8°C° 0 mm 2 mps 748 mmHg 92%
23:00 +8°C° 0.1 mm 2 mps 748 mmHg 94%

Tomorrow, 19 May, Wednesday

Time Temperature Precipitation Wind Pressure Humidity
00:00 +7°C° 0.1 mm 2 mps 749 mmHg 95%
01:00 +7°C° 0.1 mm 2 mps 749 mmHg 96%
02:00 +7°C° 0.1 mm 2 mps 749 mmHg 97%
03:00 +7°C° 0.1 mm 2 mps 749 mmHg 97%
04:00 +6°C° 0.1 mm 2 mps 749 mmHg 98%
05:00 +7°C° 0 mm 3 mps 749 mmHg 95%
06:00 +8°C° 0 mm 3 mps 749 mmHg 93%
07:00 +10°C° 0 mm 3 mps 749 mmHg 90%
08:00 +10°C° 0.1 mm 3 mps 750 mmHg 88%
09:00 +10°C° 0.1 mm 3 mps 750 mmHg 86%
10:00 +11°C° 0.1 mm 3 mps 750 mmHg 84%
11:00 +11°C° 0.2 mm 4 mps 750 mmHg 81%
12:00 +12°C° 0.2 mm 4 mps 750 mmHg 78%
13:00 +12°C° 0.2 mm 4 mps 750 mmHg 75%
14:00 +13°C° 0.2 mm 4 mps 750 mmHg 72%
15:00 +13°C° 0.2 mm 3 mps 750 mmHg 70%
16:00 +14°C° 0.2 mm 3 mps 750 mmHg 68%
17:00 +13°C° 0.5 mm 3 mps 750 mmHg 74%
18:00 +13°C° 0.5 mm 2 mps 750 mmHg 80%
19:00 +12°C° 0.5 mm 2 mps 750 mmHg 87%
20:00 +10°C° 0.1 mm 2 mps 750 mmHg 89%
21:00 +9°C° 0.1 mm 2 mps 751 mmHg 91%
22:00 +8°C° 0.1 mm 2 mps 751 mmHg 94%
23:00 +7°C° 0 mm 2 mps 751 mmHg 94%

Day after tomorrow, 20 May, Thursday

Time Temperature Precipitation Wind Pressure Humidity
00:00 +7°C° 0 mm 2 mps 751 mmHg 94%
01:00 +8°C° 0 mm 1 mps 751 mmHg 94%
02:00 +6°C° 0 mm 2 mps 752 mmHg 95%
03:00 +6°C° 0 mm 2 mps 752 mmHg 95%
04:00 +6°C° 0 mm 2 mps 752 mmHg 96%
05:00 +7°C° 0 mm 2 mps 752 mmHg 93%
06:00 +8°C° 0 mm 2 mps 753 mmHg 90%
07:00 +10°C° 0 mm 3 mps 753 mmHg 87%
08:00 +11°C° 0.1 mm 3 mps 753 mmHg 79%
09:00 +13°C° 0.1 mm 3 mps 753 mmHg 72%
10:00 +14°C° 0.1 mm 4 mps 753 mmHg 64%
11:00 +14°C° 0.4 mm 4 mps 753 mmHg 66%
12:00 +14°C° 0.4 mm 5 mps 753 mmHg 69%
13:00 +14°C° 0.4 mm 5 mps 754 mmHg 71%
14:00 +14°C° 0.2 mm 5 mps 754 mmHg 66%
15:00 +15°C° 0.2 mm 4 mps 754 mmHg 62%
16:00 +15°C° 0.2 mm 4 mps 754 mmHg 57%
17:00 +14°C° 0 mm 3 mps 754 mmHg 62%
18:00 +13°C° 0 mm 3 mps 754 mmHg 68%
19:00 +13°C° 0 mm 2 mps 754 mmHg 73%
20:00 +10°C° 0 mm 2 mps 755 mmHg 77%
21:00 +9°C° 0 mm 2 mps 755 mmHg 82%
22:00 +8°C° 0 mm 2 mps 755 mmHg 86%
23:00 +7°C° 0 mm 2 mps 755 mmHg 88%

21 May, Friday

Time Temperature Precipitation Wind Pressure Humidity
00:00 +7°C° 0 mm 2 mps 755 mmHg 90%
01:00 +6°C° 0 mm 2 mps 755 mmHg 92%
02:00 +6°C° 0 mm 2 mps 755 mmHg 93%
03:00 +6°C° 0 mm 2 mps 754 mmHg 94%
04:00 +6°C° 0 mm 2 mps 754 mmHg 94%
05:00 +7°C° 0 mm 2 mps 754 mmHg 87%
06:00 +9°C° 0 mm 2 mps 754 mmHg 80%
07:00 +11°C° 0 mm 3 mps 754 mmHg 72%
08:00 +13°C° 0 mm 3 mps 753 mmHg 65%
09:00 +14°C° 0 mm 3 mps 753 mmHg 57%
10:00 +17°C° 0 mm 3 mps 752 mmHg 49%
11:00 +18°C° 0 mm 4 mps 752 mmHg 46%
12:00 +19°C° 0 mm 4 mps 751 mmHg 43%
13:00 +20°C° 0 mm 4 mps 751 mmHg 40%
14:00 +19°C° 0 mm 4 mps 750 mmHg 44%
15:00 +19°C° 0 mm 4 mps 750 mmHg 48%
16:00 +18°C° 0 mm 4 mps 749 mmHg 52%
17:00 +17°C° 0 mm 4 mps 749 mmHg 56%
18:00 +16°C° 0 mm 3 mps 749 mmHg 60%
19:00 +14°C° 0 mm 3 mps 748 mmHg 64%
20:00 +14°C° 0 mm 3 mps 748 mmHg 66%
21:00 +13°C° 0 mm 3 mps 747 mmHg 69%
22:00 +12°C° 0 mm 3 mps 747 mmHg 71%
23:00 +12°C° 0 mm 3 mps 746 mmHg 69%

22 May, Saturday

Time Temperature Precipitation Wind Pressure Humidity
00:00 +13°C° 0 mm 4 mps 746 mmHg 67%
01:00 +13°C° 0 mm 4 mps 745 mmHg 64%
02:00 +12°C° 0.7 mm 4 mps 745 mmHg 74%
03:00 +12°C° 0.7 mm 4 mps 745 mmHg 84%
04:00 +10°C° 0.7 mm 5 mps 745 mmHg 93%
05:00 +12°C° 0 mm 5 mps 745 mmHg 90%
06:00 +12°C° 0 mm 5 mps 745 mmHg 88%
07:00 +13°C° 0 mm 5 mps 745 mmHg 85%
08:00 +14°C° 0.1 mm 5 mps 745 mmHg 80%
09:00 +14°C° 0.1 mm 6 mps 746 mmHg 75%
10:00 +15°C° 0.1 mm 6 mps 746 mmHg 70%
11:00 +15°C° 0 mm 6 mps 746 mmHg 66%
12:00 +15°C° 0 mm 6 mps 746 mmHg 61%
13:00 +15°C° 0 mm 6 mps 747 mmHg 57%
14:00 +16°C° 0 mm 6 mps 747 mmHg 55%
15:00 +16°C° 0 mm 6 mps 747 mmHg 52%
16:00 +16°C° 0 mm 6 mps 747 mmHg 50%
17:00 +15°C° 0 mm 5 mps 747 mmHg 55%
18:00 +14°C° 0 mm 5 mps 747 mmHg 60%
19:00 +13°C° 0 mm 4 mps 747 mmHg 65%
20:00 +12°C° 0 mm 4 mps 747 mmHg 69%
21:00 +11°C° 0 mm 4 mps 748 mmHg 74%
22:00 +10°C° 0 mm 4 mps 748 mmHg 78%
23:00 +10°C° 0 mm 4 mps 748 mmHg 79%

23 May, Sunday

Time Temperature Precipitation Wind Pressure Humidity
00:00 +8°C° 0 mm 4 mps 748 mmHg 80%
01:00 +8°C° 0 mm 4 mps 748 mmHg 81%
02:00 +8°C° 0 mm 4 mps 748 mmHg 80%
03:00 +7°C° 0 mm 4 mps 748 mmHg 80%
04:00 +7°C° 0 mm 4 mps 748 mmHg 79%
05:00 +10°C° 0 mm 4 mps 748 mmHg 75%
06:00 +10°C° 0 mm 5 mps 748 mmHg 71%
07:00 +12°C° 0 mm 5 mps 748 mmHg 67%
08:00 +13°C° 0.1 mm 5 mps 748 mmHg 66%
09:00 +14°C° 0.1 mm 6 mps 748 mmHg 64%
10:00 +14°C° 0.1 mm 6 mps 749 mmHg 63%
11:00 +15°C° 0.2 mm 7 mps 748 mmHg 61%
12:00 +15°C° 0.2 mm 7 mps 748 mmHg 59%
13:00 +16°C° 0.2 mm 8 mps 748 mmHg 57%
14:00 +15°C° 0.1 mm 7 mps 749 mmHg 58%
15:00 +15°C° 0.1 mm 6 mps 749 mmHg 59%
16:00 +15°C° 0.1 mm 5 mps 749 mmHg 60%
17:00 +14°C° 0 mm 4 mps 749 mmHg 64%
18:00 +13°C° 0 mm 3 mps 749 mmHg 68%
19:00 +13°C° 0 mm 2 mps 749 mmHg 71%
20:00 +12°C° 0 mm 2 mps 749 mmHg 75%
21:00 +10°C° 0 mm 2 mps 750 mmHg 80%
22:00 +9°C° 0 mm 2 mps 750 mmHg 84%
23:00 +9°C° 0 mm 2 mps 750 mmHg 84%
Show more